Location: Ferchesar
(52.6477°N, 12.4298°E)
Time: 20:55:57
(UTC+02:00)

Tiros 1 despin weight - Pass Details

Date: 05 March 2021
Orbit: 593 x 641 km, 48.2° (Epoch: 17 April)

Event Time Altitude Azimuth Distance (km) Brightness Sun altitude
Exits shadow 05:15:07 16° 218° (SW) 1,682 ? -14.8°
Maximum altitude 05:15:14 16° 217° (SW) 1,681 ? -14.8°
Drops below altitude 10° 05:17:59 10° 180° (S) 2,026 ? -14.4°
Sets 05:21:07 0° 159° (SSE) 2,933 ? -13.9°
